World > North America > United States > Wyoming > Deaver

Deaver, WY Hourly Weather Conditions

Feedback E-mail the Weather

Quick WX

Deaver, WY Weather Maps

°F °C°F °C
Deaver Weather Map
UTC Time: 11/28/2022, 09:24
Your Time:

Deaver, WY Regional Weather

Expires:202211281000;;937298
ASUS45 KCYS 280910
RWRWY 

WYOMING REGIONAL WEATHER ROUNDUP
NATIONAL WEATHER SERVICE CHEYENNE WY
200 AM MST MON NOV 28 2022

NOTE:  "FAIR" INDICATES FEW OR NO CLOUDS BELOW 12,000 FEET
WITH NO SIGNIFICANT WEATHER AND/OR OBSTRUCTIONS TO VISIBILITY.


WYZ002>013-054>058-071-098>099-281000-
...NORTHERN WYOMING...
  
CITY           SKY/WX    TMP DP  RH WIND       PRES   REMARKS
JACKSON        SNOW      27  25  93 S22G30    29.54F VSB 1/2 WCI  12  
CODY           LGT SNOW  23  20  88 N10       29.57R VSB 3/4 WCI  12  
GREYBULL       MOCLDY    29  21  72 NW20G28   29.55F WCI  16          
WORLAND        PTCLDY    19  17  92 NW3       29.55F                  
SHERIDAN       LGT SNOW  27  21  78 NW17      29.64S WCI  14          
BUFFALO        PTCLDY    31  20  63 N26G38    29.57S WCI  17          
GILLETTE       CLOUDY    31  20  63 NW20G31   29.59R WCI  19          
HULETT           N/A    N/A N/A N/A MISG        N/A                   
NEWCASTLE      CLOUDY    30  19  64 SE5       29.56S WCI  25          

$$

SKY/WX - Weather  TMP - Temperature  DP - Dew Point  RH - Humidity
WIND - Wind Direction/Speed PRES - Barometric Pressure VSB - Visibility
WCI - Wind Chill Index E13G22 Wind - East Wind 13 mph/Gusts of 22 mph

Trending Headlines

Trending Entertainment Headlines

Deaver Radar Loop

Use the map search tool if you want to place a location marker on the radar map...

Deaver Quick Facts

National Two Day Weather Forecast


E-mail the Deaver Weather Forecast

Voice your opinion or tell us about page issues...